Regional Weather Roundup
Issued by NWS New Orleans/Baton Rouge, LA

Home | Current Version | Previous Version | Graphics & Text | Print | Product List | Glossary On
Versions: 1 2 3 4 5 6 7 8 9 10 11 12 13 14 15 16 17 18 19 20 21 22 23 24 25 26 27 28 29 30 31 32 33 34 35 36 37 38 39 40 41 42 43 44 45 46 47 48 49 50
683
ASUS44 KLIX 311907
RWRLIX
NEW ORLEANS REGIONAL WEATHER ROUNDUP
NATIONAL WEATHER SERVICE NEW ORLEANS LA
200 PM CDT TUE MAR 31 2015

NOTE: "FAIR" INDICATES FEW OR NO CLOUDS BELOW 12,000 FEET WITH NO
      SIGNIFICANT WEATHER AND/OR OBSTRUCTIONS TO VISIBILITY.
      SKY/WX - SKY CONDITION AND SIGNIFICANT WEATHER.
      TMP - AIR TEMPERATURE.     DP    - DEWPOINT TEMPERATURE.
      RH  - RELATIVE HUMIDITY.   PRES  - PRESSURE.
      HI  - HEAT INDEX.          WCI   - WIND CHILL INDEX.

*  THESE STATIONS ARE NOT NWS OR FAA STATIONS AND ARE NOT UNDER
   NWS QUALITY CONTROL.

LAZ038-040-048-061>063-065>067-069-312000-
SOUTHEAST LOUISIANA

CITY           SKY/WX    TMP DP  RH WIND       PRES   REMARKS
N.O. AUDUBON   NOT AVBL
N.O. INTL ARPT PTSUNNY   80  62  54 W15       30.09F
N.O. LAKEFRONT PTSUNNY   79  63  57 W12       30.09F
SLIDELL        MOSUNNY   80  62  54 SW12G22   30.08F
BATON ROUGE    MOSUNNY   81  61  50 SW14      30.08F
BOOTHVILLE     MOSUNNY   78  66  66 W9        30.13F
BELLE CHASSE   PTSUNNY   79  61  53 SW14      30.09F
BOGALUSA*        N/A     81  58  45 W8        30.09F
GALLIANO*      PTCLDY    81  64  55 SW23      30.12F
NEW ROADS*     NOT AVBL
GONZALES*      MOCLDY    80  60  51 SW13G24   30.09F
HAMMOND*       PTSUNNY   81  55  41 W10       30.10F
HOUMA*         PTSUNNY   79  64  61 SW15      30.11F
PORT FOURCHON* MOCLDY    79  64  61 SW10      30.15F

$$

MSZ070-080>082-312000-
SOUTHERN MISSISSIPPI

CITY           SKY/WX    TMP DP  RH WIND       PRES   REMARKS
MCCOMB         MOSUNNY   79  58  48 W15G22    30.07F
GULFPORT       MOSUNNY   79  62  56 SW10      30.08F
BILOXI         SUNNY     77  66  68 SW15      30.08F
PASCAGOULA     MOSUNNY   80  63  55 SW13G24   30.08F

$$

COASTAL OBSERVATIONS
LAKE AND NEARSHORE STATIONS

STATION/POSITION TIME  TEMP    WIND        PRES    WAVE
                       AIR SEA DIR/SP/G            HT/PER
                 (UTC) (F)     (DEG/KT/KT) (MB)    (FT/S)
PASCAGOULA       1800   74     210/ 10/ 13 1019.3
WAVELAND YACHT   1800   74 69  200/  8/ 12 1019.5
GRAND ISLE       1800   76 71  250/ 11/ 14 1020.3
SOUTHWEST PASS   1800   75 55  230/  6/  7 1021.1
NEW CANAL        1800   79     230/  7/ 10 1020.0
SHELL BEACH      1800   77 71  220/ 17/ 20 1019.8

OFFSHORE STATIONS

STATION/POSITION TIME  TEMP    WIND        PRES    WAVE
                       AIR SEA DIR/SP/G            HT/PER
                 (UTC) (F)     (DEG/KT/KT) (MB)    (FT/S)
64 S DAUPHIN ISL 1850   73 73  230/  6/  6 1020.5    2/ 7

$$




USA.gov is the U.S. government's official web portal to all federal, state and local government web resources and services.